[[{"header":{"parameterUnit":"m.s-1","parameterCategory":2,"la1":30.2991,"la2":30.254,"lo1":-89.0895,"lo2":-89.0444,"dy":0.0017,"dx":0.0017,"nx":28,"ny":28,"refTime":"2024-10-15T03:00:00:Z","depth":"0","parameterNumber":2,"parameterNumberName":"U-component_of_CURRENTS"},"data":[0,0,0,0,0,0,0,0,0,0,0,0,0,0,0,0,0,0,0,0,0,0,0,0,0,0,0,0,0,0,0,0,0,0,0,0,0,0,0,0,0,0,0,0,0,0,0,0,0,0,0,0,0,0,0,0,0,0,-0.2366,-0.2366,0,-0.2371,-0.237,-0.237,-0.2351,-0.2351,-0.235,-0.235,-0.2316,-0.2315,-0.2314,0,0,0,0,0,0,0,0,0,0,0,0,0,-0.2308,-0.231,-0.2366,-0.2366,-0.2366,-0.2371,-0.237,-0.237,-0.2351,-0.2351,-0.235,-0.235,-0.2316,-0.2315,-0.2314,0,0,0,0,0,0,0,0,0,0,0,0,0,-0.2322,-0.231,-0.2366,-0.236,-0.236,-0.2371,-0.237,-0.237,-0.2351,-0.2351,-0.235,-0.235,-0.2316,-0.2315,-0.2314,-0.2316,0,0,-0.2311,-0.2311,0,0,0,0,0,0,0,0,-0.2321,-0.2324,-0.236,-0.236,-0.236,-0.2363,-0.2338,-0.2351,-0.2351,-0.2351,-0.235,-0.235,-0.233,-0.2328,-0.2326,-0.2314,-0.2313,-0.2311,-0.231,-0.231,-0.231,0,0,0,0,0,0,0,-0.2321,-0.2323,-0.2364,-0.2361,-0.2361,-0.2347,-0.2348,-0.234,-0.2339,-0.2351,-0.235,-0.2356,-0.2329,-0.2327,-0.2325,-0.2312,-0.2311,-0.231,-0.231,-0.2309,-0.2298,-0.2298,0,0,0,0,0,0,-0.2329,-0.2323,-0.2364,-0.2365,-0.2343,-0.2348,-0.235,-0.2359,-0.234,-0.2338,-0.2357,-0.2355,-0.2329,-0.2326,-0.2323,-0.2329,-0.231,-0.2309,-0.2309,-0.2298,-0.2298,-0.2298,0,0,0,0,0,0,-0.2328,-0.2333,-0.2364,-0.2346,-0.2349,-0.235,-0.2361,-0.236,-0.2359,-0.2346,-0.2342,-0.2358,-0.2328,-0.2325,-0.2318,-0.2327,-0.2309,-0.2308,-0.2297,-0.2298,-0.2298,-0.2336,0,0,0,0,0,0,-0.2326,-0.2332,-0.2337,-0.2347,-0.2351,-0.2376,-0.2362,-0.236,-0.2365,-0.2363,-0.2346,-0.2342,-0.2328,-0.232,-0.2317,-0.2325,-0.2307,-0.2297,-0.2298,-0.2298,-0.2335,-0.2338,-0.2341,0,0,0,0,0,-0.2324,-0.2336,-0.2337,-0.2342,-0.2359,-0.2377,-0.2378,-0.2374,-0.2366,-0.237,-0.2355,-0.2343,-0.2321,-0.2319,-0.2316,-0.2324,-0.2297,-0.2297,-0.2298,-0.2333,-0.2337,-0.2341,0,0,0,0,0,0,-0.2312,-0.2336,-0.2337,-0.2355,-0.2368,-0.2375,-0.2378,-0.2378,-0.237,-0.2365,-0.2347,-0.2343,-0.234,-0.2327,-0.2325,-0.2322,-0.2307,-0.2307,-0.2335,-0.2339,-0.2342,-0.2351,-0.2306,0,0,0,0,0,-0.2313,-0.2326,-0.2348,-0.2359,-0.2368,-0.2374,-0.2378,-0.238,-0.2379,-0.2375,-0.2363,-0.2349,-0.2341,-0.2336,-0.2325,-0.2325,-0.2325,-0.2327,-0.233,-0.2333,-0.2338,-0.2341,-0.2345,-0.2301,-0.2301,-0.2301,0,0,-0.231,-0.2325,-0.2331,-0.2357,-0.2364,-0.2384,-0.2374,-0.2388,-0.2399,-0.2372,-0.2375,-0.236,-0.2343,-0.2342,-0.234,-0.2332,-0.2349,-0.2334,-0.2337,-0.234,-0.2342,-0.2346,-0.235,-0.2301,-0.2301,-0.2301,0,0,-0.2314,-0.2326,-0.234,-0.2358,-0.2379,-0.2387,-0.2395,-0.2407,-0.2407,-0.2411,-0.2394,-0.2386,-0.2372,-0.2365,-0.2358,-0.2373,-0.2366,-0.2368,-0.2391,-0.2394,-0.2398,-0.2401,-0.2424,-0.2429,-0.2369,-0.2369,-0.2369,0,-0.2309,-0.2332,-0.2345,-0.2368,-0.2384,-0.2393,-0.2414,-0.2421,-0.2427,-0.243,-0.2416,-0.2402,-0.2385,-0.239,-0.2391,-0.2381,-0.2387,-0.2379,-0.2399,-0.2402,-0.2405,-0.2427,-0.2432,-0.2371,-0.2371,-0.2371,-0.2371,0,-0.2325,-0.2347,-0.2358,-0.239,-0.2409,-0.2428,-0.245,-0.246,-0.2459,-0.2463,-0.2465,-0.2443,-0.2434,-0.2428,-0.2411,-0.2424,-0.2425,-0.2404,-0.2392,-0.2412,-0.2434,-0.2438,-0.2374,-0.2373,-0.2373,-0.2372,0,0,-0.2302,-0.2358,-0.2361,-0.2383,-0.2423,-0.244,-0.2468,-0.2493,-0.2512,-0.2506,-0.2523,-0.2501,-0.2488,-0.2479,-0.246,-0.2461,-0.2485,-0.2441,-0.2441,-0.2469,-0.2509,-0.2557,-0.2567,-0.2466,-0.2467,-0.2467,-0.2524,0,-0.2308,-0.235,-0.238,-0.242,-0.2445,-0.2473,-0.2501,-0.2525,-0.2537,-0.2556,-0.2541,-0.2543,-0.2509,-0.2503,-0.25,-0.2485,-0.2496,-0.2473,-0.2481,-0.2482,-0.2526,-0.2573,-0.2585,-0.264,-0.2528,-0.2529,-0.2529,0,-0.231,-0.2341,-0.2379,-0.2441,-0.2455,-0.2478,-0.2524,-0.255,-0.2585,-0.2594,-0.2599,-0.2591,-0.2591,-0.2556,-0.2554,-0.2541,-0.253,-0.2522,-0.2523,-0.2557,-0.2538,-0.2597,-0.2652,-0.2643,-0.2536,-0.2536,-0.2535,0,-0.2277,-0.2341,-0.2368,-0.2389,-0.2458,-0.2476,-0.2505,-0.255,-0.2577,-0.2613,-0.2636,-0.2636,-0.2638,-0.2621,-0.2608,-0.2577,-0.2621,-0.2572,-0.2613,-0.2617,-0.2624,-0.2628,-0.2674,-0.2581,-0.2581,-0.2581,-0.258,0,-0.227,-0.2292,-0.2353,-0.2368,-0.2403,-0.2456,-0.2492,-0.2528,-0.2582,-0.2624,-0.2642,-0.2676,-0.2653,-0.2676,-0.2645,-0.2666,-0.2651,-0.2638,-0.2639,-0.264,-0.2645,-0.2632,-0.2624,-0.2583,-0.2582,-0.2582,-0.2581,0,-0.2223,-0.2268,-0.2301,-0.2366,-0.2387,-0.2402,-0.2474,-0.2503,-0.2567,-0.2624,-0.2637,-0.2705,-0.2743,-0.2747,-0.2743,-0.2727,-0.2716,-0.274,-0.2761,-0.2764,-0.2774,-0.2767,-0.2752,-0.2701,-0.2784,-0.2785,-0.2787,0,-0.2201,-0.2212,-0.2275,-0.229,-0.2314,-0.2353,-0.2384,-0.2468,-0.2509,-0.2642,-0.2667,-0.2748,-0.281,-0.2861,-0.2868,-0.2877,-0.2787,-0.2867,-0.2802,-0.2804,-0.2795,-0.271,-0.266,-0.2829,-0.2831,-0.2832,-0.2833,0,-0.2145,-0.2162,-0.2186,-0.2219,-0.2249,-0.2292,-0.2347,-0.239,-0.2506,-0.2591,-0.271,-0.2783,-0.2894,-0.2956,-0.3,-0.2963,-0.2835,-0.2894,-0.2879,-0.2838,-0.2763,-0.2706,-0.2774,-0.2845,-0.2844,-0.2843,-0.2842,-0.2842,-0.2082,-0.2079,-0.2105,-0.2131,-0.217,-0.2214,-0.2221,-0.2337,-0.243,-0.2595,-0.2711,-0.2904,-0.3013,-0.3095,-0.3075,-0.3055,-0.294,-0.2957,-0.2951,-0.2865,-0.281,-0.2928,-0.3007,-0.3007,-0.3006,-0.3006,-0.3006,0,-0.1991,-0.2,-0.2017,-0.2044,-0.205,-0.2104,-0.2177,-0.2198,-0.2306,-0.2588,-0.2741,-0.31,-0.3158,-0.3227,-0.3259,-0.3162,-0.3012,-0.303,-0.2903,-0.2847,-0.2954,-0.2951,-0.3043,-0.3043,-0.3043,-0.3043,-0.3043,-0.3043,-0.1942,-0.1919,-0.1932,-0.1908,-0.1927,-0.1907,-0.1926,-0.2015,-0.2188,-0.2544,-0.2906,-0.3214,-0.3274,-0.3478,-0.3383,-0.3225,-0.3061,-0.2962,-0.2889,-0.2982,-0.2973,-0.2964,-0.2959,-0.3051,-0.3051,-0.272,-0.2718,-0.2717]},{"header":{"parameterUnit":"m.s-1","parameterCategory":2,"la1":30.2991,"la2":30.254,"lo1":-89.0895,"lo2":-89.0444,"dy":0.0017,"dx":0.0017,"nx":28,"ny":28,"refTime":"2024-10-15T03:00:00:Z","depth":"0","parameterNumber":3,"parameterNumberName":"V-component_of_CURRENTS"},"data":[0,0,0,0,0,0,0,0,0,0,0,0,0,0,0,0,0,0,0,0,0,0,0,0,0,0,0,0,0,0,0,0,0,0,0,0,0,0,0,0,0,0,0,0,0,0,0,0,0,0,0,0,0,0,0,0,0,0,-0.0451,-0.045,0,-0.036,-0.0359,-0.0358,-0.0308,-0.0307,-0.0307,-0.0307,-0.0213,-0.0211,-0.0209,0,0,0,0,0,0,0,0,0,0,0,0,0,-0.053,-0.0529,-0.0451,-0.045,-0.0449,-0.036,-0.0359,-0.0358,-0.0308,-0.0307,-0.0307,-0.0307,-0.0214,-0.0211,-0.0209,0,0,0,0,0,0,0,0,0,0,0,0,0,-0.0473,-0.0529,-0.0451,-0.0413,-0.0409,-0.036,-0.0359,-0.0357,-0.0308,-0.0307,-0.0307,-0.0307,-0.0215,-0.0212,-0.0208,-0.019,0,0,-0.0197,-0.0196,0,0,0,0,0,0,0,0,-0.0476,-0.047,-0.042,-0.0416,-0.0411,-0.0345,-0.0352,-0.0301,-0.0308,-0.0346,-0.0307,-0.0307,-0.0257,-0.025,-0.0233,-0.0185,-0.0181,-0.0197,-0.0195,-0.0193,-0.0192,0,0,0,0,0,0,0,-0.048,-0.0473,-0.0415,-0.0419,-0.0413,-0.0383,-0.0375,-0.0342,-0.0304,-0.0342,-0.0339,-0.0329,-0.0255,-0.0237,-0.0231,-0.018,-0.0197,-0.0194,-0.0192,-0.019,-0.0104,-0.0104,0,0,0,0,0,0,-0.0495,-0.0477,-0.0417,-0.0412,-0.0444,-0.0382,-0.0373,-0.0366,-0.0304,-0.0294,-0.0329,-0.0327,-0.0243,-0.0235,-0.0227,-0.0196,-0.0193,-0.019,-0.0188,-0.0104,-0.0104,-0.0104,0,0,0,0,0,0,-0.0497,-0.049,-0.0421,-0.0442,-0.0432,-0.0381,-0.0373,-0.0364,-0.0346,-0.0294,-0.0284,-0.032,-0.0243,-0.0232,-0.0197,-0.0193,-0.0188,-0.0185,-0.0104,-0.0104,-0.0104,-0.0138,0,0,0,0,0,0,-0.0499,-0.0492,-0.0493,-0.0444,-0.0431,-0.0396,-0.0373,-0.0363,-0.0341,-0.0337,-0.0283,-0.0274,-0.0242,-0.0202,-0.0193,-0.0188,-0.0182,-0.0104,-0.0104,-0.0104,-0.0137,-0.0139,-0.014,0,0,0,0,0,-0.0503,-0.0506,-0.0494,-0.0487,-0.0435,-0.0396,-0.0387,-0.035,-0.0341,-0.0333,-0.0296,-0.0276,-0.0194,-0.0199,-0.0189,-0.0182,-0.0105,-0.0104,-0.0104,-0.0136,-0.0138,-0.014,0,0,0,0,0,0,-0.0542,-0.05,-0.0486,-0.0477,-0.0441,-0.0388,-0.0379,-0.0355,-0.0319,-0.0318,-0.0271,-0.0259,-0.0227,-0.0201,-0.0208,-0.0157,-0.0147,-0.0145,-0.0175,-0.0177,-0.0179,-0.0187,-0.0179,0,0,0,0,0,-0.0552,-0.0545,-0.0498,-0.0492,-0.0477,-0.043,-0.0411,-0.0386,-0.0347,-0.0331,-0.0292,-0.0253,-0.0217,-0.0196,-0.0161,-0.0132,-0.0109,-0.0122,-0.0123,-0.0125,-0.0125,-0.0091,-0.009,-0.0103,-0.0103,-0.0103,0,0,-0.0567,-0.0543,-0.0539,-0.05,-0.0471,-0.0451,-0.0418,-0.0393,-0.0373,-0.0327,-0.0293,-0.0258,-0.0212,-0.0178,-0.0161,-0.0155,-0.011,-0.0125,-0.0127,-0.0125,-0.0091,-0.009,-0.0089,-0.0102,-0.0102,-0.0103,0,0,-0.0592,-0.0571,-0.0572,-0.0544,-0.0504,-0.0472,-0.0468,-0.0415,-0.0389,-0.0353,-0.0316,-0.0279,-0.0224,-0.0186,-0.0161,-0.0152,-0.0123,-0.0144,-0.0155,-0.0122,-0.0121,-0.012,-0.0092,-0.0088,-0.0142,-0.0142,-0.0142,0,-0.0612,-0.0604,-0.0566,-0.0556,-0.0538,-0.0485,-0.0479,-0.0441,-0.0383,-0.0361,-0.0349,-0.0264,-0.0226,-0.0178,-0.0174,-0.0156,-0.0136,-0.0151,-0.0125,-0.0123,-0.0121,-0.0093,-0.0089,-0.0144,-0.0144,-0.0143,-0.0143,0,-0.0632,-0.0624,-0.0623,-0.0593,-0.0568,-0.0554,-0.0499,-0.0471,-0.0436,-0.0394,-0.0342,-0.0287,-0.0236,-0.0218,-0.019,-0.0155,-0.0145,-0.0135,-0.0122,-0.0122,-0.0093,-0.0087,-0.0146,-0.0145,-0.0145,-0.0145,0,0,-0.0679,-0.0646,-0.0645,-0.0642,-0.0588,-0.0572,-0.0536,-0.0487,-0.0468,-0.0405,-0.0372,-0.0303,-0.027,-0.024,-0.0199,-0.0165,-0.0133,-0.0147,-0.0144,-0.0125,-0.0065,-0.0014,-0.0003,-0.012,-0.0119,-0.0118,-0.0051,0,-0.0707,-0.0712,-0.0676,-0.0675,-0.0673,-0.0613,-0.0586,-0.0534,-0.0482,-0.0436,-0.0362,-0.032,-0.0278,-0.0259,-0.0215,-0.0151,-0.0119,-0.0152,-0.0063,-0.0061,-0.002,0.0005,0.001,0.0074,-0.0046,-0.0045,-0.0044,0,-0.0734,-0.0737,-0.0747,-0.0724,-0.0717,-0.0703,-0.0655,-0.0622,-0.0537,-0.0497,-0.0429,-0.0369,-0.0294,-0.0272,-0.0158,-0.0182,-0.0129,-0.0082,-0.0079,-0.0015,0.0001,0.0056,0.0089,0.0213,-0.0035,-0.0036,-0.0036,0,-0.0795,-0.0782,-0.0799,-0.079,-0.0753,-0.0744,-0.0718,-0.0645,-0.0623,-0.0535,-0.0511,-0.0405,-0.036,-0.027,-0.0151,-0.0161,-0.0031,-0.0033,0.0061,0.0065,0.0096,0.0102,0.0258,0.0033,0.0032,0.0032,0.0032,0,-0.0838,-0.0848,-0.0833,-0.0843,-0.0863,-0.0807,-0.0805,-0.0758,-0.0695,-0.0676,-0.0554,-0.0515,-0.036,-0.0257,-0.0159,-0.0015,-0.0033,0.0069,0.0092,0.0085,0.0089,0.0221,0.0285,0.0035,0.0034,0.0034,0.0033,0,-0.0896,-0.0884,-0.0907,-0.0894,-0.0893,-0.0907,-0.0879,-0.0877,-0.08,-0.0772,-0.0749,-0.0598,-0.0455,-0.029,-0.0133,-0.0029,0.0175,0.0149,0.0135,0.0156,0.0359,0.042,0.0602,0.0614,0.026,0.0262,0.0264,0,-0.0922,-0.0943,-0.0964,-0.0992,-0.0989,-0.0999,-0.101,-0.0945,-0.0938,-0.0826,-0.0823,-0.0663,-0.0556,-0.0271,-0.0045,0.0161,0.0237,0.0281,0.027,0.0389,0.0473,0.0507,0.0504,0.0291,0.0293,0.0294,0.0295,0,-0.0976,-0.0986,-0.1012,-0.1084,-0.1113,-0.1139,-0.1143,-0.1155,-0.1076,-0.104,-0.0958,-0.0857,-0.0537,-0.0266,0.0048,0.0167,0.037,0.0314,0.0442,0.0526,0.0568,0.0583,0.0224,0.0307,0.0306,0.0305,0.0304,0.0304,-0.1013,-0.1058,-0.1109,-0.1177,-0.1222,-0.1276,-0.1315,-0.131,-0.1311,-0.126,-0.11,-0.0928,-0.045,0.0004,0.0153,0.0515,0.0472,0.0592,0.0658,0.0682,0.0702,0.0376,0.0485,0.0485,0.0484,0.0484,0.0484,0,-0.106,-0.1122,-0.1197,-0.1284,-0.1368,-0.136,-0.1407,-0.1451,-0.1484,-0.137,-0.1275,-0.073,-0.03,0.0139,0.0706,0.0873,0.0843,0.0933,0.0973,0.0949,0.0669,0.0677,0.0829,0.0829,0.0828,0.0828,0.0828,0.0828,-0.1087,-0.1181,-0.1236,-0.14,-0.1465,-0.1571,-0.161,-0.166,-0.161,-0.1447,-0.1152,-0.0905,-0.0126,0.0842,0.1294,0.1278,0.1335,0.1322,0.1356,0.1176,0.1148,0.1121,0.1145,0.1392,0.1393,0.1568,0.1571,0.1573]}],[{"header":{"parameterUnit":"m.s-1","parameterCategory":2,"la1":30.2991,"la2":30.254,"lo1":-89.0895,"lo2":-89.0444,"dy":0.0017,"dx":0.0017,"nx":28,"ny":28,"refTime":"2024-10-15T03:00:00:Z","depth":"2","parameterNumber":2,"parameterNumberName":"U-component_of_CURRENTS"},"data":[0,0,0,0,0,0,0,0,0,0,0,0,0,0,0,0,0,0,0,0,0,0,0,0,0,0,0,0,0,0,0,0,0,0,0,0,0,0,0,0,0,0,0,0,0,0,0,0,0,0,0,0,0,0,0,0,0,0,-0.2321,-0.2321,0,-0.2325,-0.2325,-0.2325,-0.2307,-0.2307,-0.2306,-0.2306,-0.2273,-0.2272,-0.2272,0,0,0,0,0,0,0,0,0,0,0,0,0,-0.2265,-0.2266,-0.2321,-0.2321,-0.2321,-0.2325,-0.2325,-0.2325,-0.2307,-0.2307,-0.2306,-0.2306,-0.2273,-0.2272,-0.2272,0,0,0,0,0,0,0,0,0,0,0,0,0,-0.2278,-0.2266,-0.2321,-0.2315,-0.2315,-0.2325,-0.2325,-0.2325,-0.2307,-0.2307,-0.2306,-0.2306,-0.2274,-0.2273,-0.2272,-0.2272,0,0,-0.2268,-0.2268,0,0,0,0,0,0,0,0,-0.2277,-0.228,-0.2316,-0.2316,-0.2316,-0.2318,-0.2293,-0.2307,-0.2307,-0.2307,-0.2306,-0.2306,-0.2287,-0.2285,-0.2282,-0.2271,-0.2269,-0.2268,-0.2268,-0.2267,-0.2267,0,0,0,0,0,0,0,-0.2276,-0.2279,-0.2319,-0.2316,-0.2316,-0.2302,-0.2304,-0.2296,-0.2295,-0.2307,-0.2306,-0.2312,-0.2286,-0.2283,-0.2281,-0.2269,-0.2268,-0.2268,-0.2267,-0.2267,-0.2255,-0.2256,0,0,0,0,0,0,-0.2285,-0.2279,-0.2319,-0.232,-0.2299,-0.2304,-0.2305,-0.2315,-0.2296,-0.2294,-0.2312,-0.2311,-0.2285,-0.2283,-0.228,-0.2286,-0.2267,-0.2266,-0.2266,-0.2255,-0.2256,-0.2256,0,0,0,0,0,0,-0.2284,-0.2289,-0.2319,-0.2301,-0.2305,-0.2306,-0.2316,-0.2315,-0.2315,-0.2302,-0.2298,-0.2314,-0.2285,-0.2282,-0.2275,-0.2285,-0.2266,-0.2265,-0.2255,-0.2255,-0.2256,-0.2294,0,0,0,0,0,0,-0.2282,-0.2288,-0.2293,-0.2302,-0.2306,-0.2331,-0.2317,-0.2316,-0.2321,-0.232,-0.2302,-0.2299,-0.2284,-0.2277,-0.2274,-0.2283,-0.2264,-0.2254,-0.2255,-0.2256,-0.2293,-0.2296,-0.2299,0,0,0,0,0,-0.228,-0.2291,-0.2293,-0.2298,-0.2315,-0.2332,-0.2333,-0.2329,-0.2322,-0.2326,-0.2312,-0.2299,-0.2279,-0.2277,-0.2273,-0.2282,-0.2254,-0.2255,-0.2256,-0.2291,-0.2295,-0.2299,0,0,0,0,0,0,-0.2268,-0.2291,-0.2293,-0.231,-0.2323,-0.233,-0.2334,-0.2334,-0.2326,-0.2321,-0.2303,-0.2299,-0.2297,-0.2284,-0.2282,-0.228,-0.2264,-0.2265,-0.2293,-0.2296,-0.2299,-0.2309,-0.2263,0,0,0,0,0,-0.227,-0.2282,-0.2303,-0.2315,-0.2324,-0.2329,-0.2334,-0.2336,-0.2335,-0.2331,-0.232,-0.2306,-0.2298,-0.2293,-0.2283,-0.2282,-0.2283,-0.2285,-0.2288,-0.2291,-0.2296,-0.2299,-0.2303,-0.2258,-0.2258,-0.2258,0,0,-0.2267,-0.2282,-0.2287,-0.2313,-0.2319,-0.2339,-0.233,-0.2344,-0.2355,-0.2329,-0.2331,-0.2317,-0.23,-0.2299,-0.2297,-0.2289,-0.2307,-0.2292,-0.2295,-0.2298,-0.23,-0.2304,-0.2308,-0.2259,-0.2259,-0.2259,0,0,-0.2271,-0.2283,-0.2296,-0.2314,-0.2335,-0.2343,-0.2351,-0.2363,-0.2363,-0.2368,-0.2351,-0.2344,-0.233,-0.2322,-0.2316,-0.2331,-0.2324,-0.2326,-0.235,-0.2352,-0.2356,-0.236,-0.2382,-0.2387,-0.2327,-0.2328,-0.2328,0,-0.2266,-0.2289,-0.2302,-0.2324,-0.234,-0.2349,-0.237,-0.2377,-0.2383,-0.2386,-0.2373,-0.236,-0.2342,-0.2347,-0.2349,-0.2339,-0.2345,-0.2338,-0.2357,-0.2361,-0.2363,-0.2386,-0.2391,-0.2329,-0.2329,-0.2329,-0.2329,0,-0.2281,-0.2304,-0.2314,-0.2346,-0.2365,-0.2384,-0.2405,-0.2416,-0.2415,-0.2419,-0.2422,-0.24,-0.2392,-0.2386,-0.237,-0.2383,-0.2384,-0.2362,-0.235,-0.237,-0.2393,-0.2397,-0.2332,-0.2332,-0.2331,-0.2331,0,0,-0.226,-0.2315,-0.2317,-0.2339,-0.2379,-0.2395,-0.2423,-0.2448,-0.2467,-0.2462,-0.248,-0.2459,-0.2446,-0.2437,-0.2419,-0.2419,-0.2444,-0.24,-0.24,-0.2428,-0.2469,-0.2515,-0.2524,-0.2426,-0.2426,-0.2427,-0.2483,0,-0.2266,-0.2307,-0.2335,-0.2375,-0.2399,-0.2428,-0.2455,-0.248,-0.2492,-0.2511,-0.2497,-0.25,-0.2467,-0.2462,-0.2458,-0.2444,-0.2455,-0.2432,-0.2441,-0.2441,-0.2483,-0.2531,-0.2258,-0.2289,-0.2487,-0.2488,-0.2489,0,-0.2267,-0.2298,-0.2335,-0.2396,-0.2409,-0.2432,-0.2478,-0.2505,-0.2539,-0.255,-0.2555,-0.2548,-0.2548,-0.2514,-0.2513,-0.25,-0.249,-0.2481,-0.2483,-0.2514,-0.2496,-0.2297,-0.229,-0.2496,-0.2496,-0.2495,-0.2495,0,-0.2235,-0.2297,-0.2324,-0.2344,-0.2412,-0.243,-0.246,-0.2504,-0.2532,-0.2568,-0.2592,-0.2593,-0.2596,-0.2579,-0.2567,-0.2536,-0.258,-0.2531,-0.2572,-0.2575,-0.234,-0.2323,-0.2541,-0.2541,-0.2541,-0.254,-0.254,0,-0.2227,-0.2249,-0.2309,-0.2324,-0.2358,-0.2411,-0.2447,-0.2483,-0.2538,-0.2579,-0.2599,-0.2632,-0.261,-0.2634,-0.2603,-0.2624,-0.261,-0.2596,-0.2597,-0.235,-0.2335,-0.2501,-0.2496,-0.2543,-0.2542,-0.2542,-0.2541,0,-0.2181,-0.2225,-0.2258,-0.2322,-0.2342,-0.2358,-0.243,-0.2459,-0.2523,-0.258,-0.2594,-0.2662,-0.27,-0.2705,-0.2701,-0.2684,-0.2686,-0.2697,-0.2434,-0.2405,-0.2667,-0.2663,-0.2735,-0.2737,-0.2739,-0.2741,-0.2742,0,-0.2159,-0.217,-0.2232,-0.2247,-0.2271,-0.231,-0.2341,-0.2425,-0.2466,-0.2598,-0.2623,-0.2704,-0.2755,-0.2805,-0.2741,-0.2729,-0.2764,-0.2526,-0.2423,-0.2696,-0.2689,-0.2682,-0.2675,-0.2116,-0.2112,-0.2109,-0.2106,0,-0.2103,-0.2121,-0.2143,-0.2177,-0.2207,-0.2249,-0.2304,-0.2346,-0.2461,-0.2536,-0.2654,-0.2716,-0.2761,-0.2642,-0.2656,-0.2594,-0.2505,-0.247,-0.2788,-0.2146,-0.2127,-0.2116,-0.2126,-0.2078,-0.2081,-0.2083,-0.2084,-0.2085,-0.2041,-0.2038,-0.2064,-0.2089,-0.2129,-0.2171,-0.2177,-0.2255,-0.2333,-0.241,-0.2563,-0.2578,-0.2546,-0.2444,-0.2354,-0.2265,-0.2425,-0.2289,-0.2291,-0.2298,-0.2253,-0.2242,-0.2207,-0.221,-0.2213,-0.2216,-0.2218,0,-0.1936,-0.1959,-0.1976,-0.2003,-0.1992,-0.2062,-0.2134,-0.2099,-0.2144,-0.2258,-0.2327,-0.2136,-0.2091,-0.2079,-0.1897,-0.1905,-0.1782,-0.1832,-0.163,-0.1661,-0.1688,-0.1604,-0.1389,-0.1387,-0.1385,-0.1383,0,0,-0.1883,-0.1852,-0.1865,-0.1834,-0.1866,-0.1818,-0.1835,-0.1817,-0.1844,-0.1836,-0.1854,-0.2006,-0.2056,-0.1728,-0.1638,-0.1501,-0.1561,-0.1425,-0.2083,-0.1876,-0.1901,-0.1943,-0.1851,0,0,0,0,0]},{"header":{"parameterUnit":"m.s-1","parameterCategory":2,"la1":30.2991,"la2":30.254,"lo1":-89.0895,"lo2":-89.0444,"dy":0.0017,"dx":0.0017,"nx":28,"ny":28,"refTime":"2024-10-15T03:00:00:Z","depth":"2","parameterNumber":3,"parameterNumberName":"V-component_of_CURRENTS"},"data":[0,0,0,0,0,0,0,0,0,0,0,0,0,0,0,0,0,0,0,0,0,0,0,0,0,0,0,0,0,0,0,0,0,0,0,0,0,0,0,0,0,0,0,0,0,0,0,0,0,0,0,0,0,0,0,0,0,0,-0.0404,-0.0404,0,-0.0314,-0.0313,-0.0312,-0.0263,-0.0263,-0.0263,-0.0263,-0.017,-0.0168,-0.0165,0,0,0,0,0,0,0,0,0,0,0,0,0,-0.0483,-0.0482,-0.0405,-0.0403,-0.0402,-0.0315,-0.0313,-0.0312,-0.0263,-0.0263,-0.0263,-0.0263,-0.0171,-0.0168,-0.0165,0,0,0,0,0,0,0,0,0,0,0,0,0,-0.0426,-0.0482,-0.0405,-0.0368,-0.0363,-0.0315,-0.0313,-0.0312,-0.0263,-0.0263,-0.0263,-0.0263,-0.0172,-0.0168,-0.0165,-0.0146,0,0,-0.0154,-0.0152,0,0,0,0,0,0,0,0,-0.043,-0.0424,-0.0374,-0.037,-0.0365,-0.03,-0.0307,-0.0256,-0.0263,-0.0301,-0.0263,-0.0263,-0.0213,-0.0206,-0.0189,-0.0141,-0.0137,-0.0153,-0.0151,-0.015,-0.0149,0,0,0,0,0,0,0,-0.0434,-0.0427,-0.0369,-0.0373,-0.0367,-0.0338,-0.033,-0.0297,-0.0259,-0.0298,-0.0294,-0.0284,-0.0211,-0.0193,-0.0187,-0.0136,-0.0153,-0.015,-0.0148,-0.0147,-0.0061,-0.006,0,0,0,0,0,0,-0.0448,-0.0431,-0.0371,-0.0366,-0.0398,-0.0337,-0.0328,-0.0321,-0.0259,-0.025,-0.0285,-0.0282,-0.0199,-0.0191,-0.0183,-0.0153,-0.015,-0.0146,-0.0144,-0.0061,-0.0061,-0.006,0,0,0,0,0,0,-0.045,-0.0444,-0.0375,-0.0396,-0.0386,-0.0336,-0.0328,-0.0319,-0.0302,-0.0249,-0.024,-0.0276,-0.0199,-0.0188,-0.0153,-0.0149,-0.0145,-0.0141,-0.0061,-0.0061,-0.006,-0.0095,0,0,0,0,0,0,-0.0453,-0.0445,-0.0447,-0.0397,-0.0385,-0.035,-0.0328,-0.0318,-0.0296,-0.0292,-0.0239,-0.023,-0.0198,-0.0159,-0.015,-0.0144,-0.0139,-0.0061,-0.0061,-0.006,-0.0094,-0.0096,-0.0098,0,0,0,0,0,-0.0456,-0.046,-0.0448,-0.0441,-0.0389,-0.035,-0.0341,-0.0305,-0.0296,-0.0289,-0.0252,-0.0232,-0.0151,-0.0156,-0.0145,-0.0139,-0.0061,-0.0061,-0.0061,-0.0093,-0.0096,-0.0098,0,0,0,0,0,0,-0.0495,-0.0454,-0.044,-0.0431,-0.0396,-0.0342,-0.0334,-0.031,-0.0275,-0.0274,-0.0227,-0.0215,-0.0184,-0.0157,-0.0164,-0.0113,-0.0104,-0.0101,-0.0132,-0.0134,-0.0136,-0.0144,-0.0136,0,0,0,0,0,-0.0506,-0.0499,-0.0451,-0.0446,-0.0431,-0.0385,-0.0366,-0.0341,-0.0302,-0.0287,-0.0248,-0.0209,-0.0173,-0.0152,-0.0118,-0.0089,-0.0066,-0.0079,-0.0081,-0.0082,-0.0082,-0.0048,-0.0047,-0.0059,-0.0059,-0.0059,0,0,-0.052,-0.0496,-0.0493,-0.0454,-0.0425,-0.0406,-0.0373,-0.0349,-0.0329,-0.0283,-0.025,-0.0215,-0.0168,-0.0135,-0.0118,-0.0112,-0.0067,-0.0082,-0.0084,-0.0083,-0.0048,-0.0047,-0.0045,-0.0059,-0.0059,-0.0059,0,0,-0.0545,-0.0524,-0.0526,-0.0498,-0.0459,-0.0427,-0.0423,-0.0371,-0.0346,-0.0309,-0.0272,-0.0236,-0.0181,-0.0143,-0.0118,-0.011,-0.008,-0.0102,-0.0113,-0.008,-0.0079,-0.0077,-0.005,-0.0046,-0.01,-0.01,-0.01,0,-0.0566,-0.0558,-0.052,-0.051,-0.0493,-0.0441,-0.0434,-0.0397,-0.034,-0.0318,-0.0306,-0.0221,-0.0184,-0.0136,-0.0132,-0.0114,-0.0094,-0.0109,-0.0083,-0.0081,-0.0079,-0.0051,-0.0047,-0.0102,-0.0101,-0.0101,-0.0101,0,-0.0585,-0.0579,-0.0577,-0.0548,-0.0523,-0.051,-0.0455,-0.0427,-0.0393,-0.0351,-0.03,-0.0244,-0.0194,-0.0176,-0.0149,-0.0113,-0.0104,-0.0093,-0.008,-0.008,-0.0051,-0.0045,-0.0104,-0.0103,-0.0103,-0.0102,0,0,-0.0633,-0.06,-0.0599,-0.0597,-0.0543,-0.0528,-0.0492,-0.0444,-0.0425,-0.0362,-0.033,-0.0261,-0.0229,-0.0199,-0.0157,-0.0123,-0.0092,-0.0105,-0.0103,-0.0083,-0.0023,0.0026,0.0037,-0.0078,-0.0077,-0.0076,-0.001,0,-0.0661,-0.0667,-0.0631,-0.063,-0.0629,-0.0569,-0.0543,-0.0491,-0.0439,-0.0394,-0.032,-0.0278,-0.0236,-0.0217,-0.0174,-0.011,-0.0078,-0.0111,-0.0022,-0.0019,0.0021,0.0045,0.0033,0.0096,-0.0004,-0.0003,-0.0003,0,-0.0689,-0.0691,-0.0703,-0.068,-0.0672,-0.0659,-0.0612,-0.0579,-0.0494,-0.0454,-0.0387,-0.0327,-0.0252,-0.0231,-0.0117,-0.014,-0.0088,-0.0041,-0.0037,0.0026,0.0041,0.0081,0.011,0.0007,0.0006,0.0006,0.0005,0,-0.075,-0.0738,-0.0755,-0.0746,-0.0709,-0.0701,-0.0675,-0.0602,-0.058,-0.0493,-0.0469,-0.0363,-0.0319,-0.0228,-0.011,-0.012,0.001,0.0008,0.0101,0.0105,0.0123,0.0127,0.0074,0.0074,0.0074,0.0074,0.0074,0,-0.0793,-0.0804,-0.0789,-0.0799,-0.0819,-0.0764,-0.0762,-0.0715,-0.0653,-0.0633,-0.0512,-0.0473,-0.0319,-0.0216,-0.0118,0.0025,0.0008,0.0109,0.0132,0.0111,0.0113,0.0057,0.0054,0.0076,0.0076,0.0075,0.0075,0,-0.0851,-0.0839,-0.0863,-0.085,-0.085,-0.0864,-0.0836,-0.0833,-0.0758,-0.0729,-0.0706,-0.0555,-0.0413,-0.0249,-0.0092,0.0012,0.0141,0.0188,0.0158,0.0177,0.0209,0.0204,0.0293,0.0296,0.0298,0.03,0.0301,0,-0.0878,-0.0898,-0.092,-0.0948,-0.0946,-0.0956,-0.0967,-0.0901,-0.0894,-0.0782,-0.0779,-0.062,-0.0511,-0.0228,-0.0004,0.0201,0.0182,0.0301,0.0288,0.0222,0.0235,0.0226,0.0218,0.0291,0.0292,0.0293,0.0294,0,-0.0931,-0.0942,-0.0968,-0.104,-0.1069,-0.1095,-0.1099,-0.111,-0.1031,-0.0989,-0.0908,-0.0805,-0.0489,-0.0226,0.0084,0.0199,0.0276,0.0329,0.0277,0.0242,0.0227,0.0237,0.0228,0.0303,0.0302,0.0301,0.0301,0.03,-0.0969,-0.1014,-0.1064,-0.1132,-0.1177,-0.1231,-0.1268,-0.1239,-0.1231,-0.1144,-0.1019,-0.083,-0.052,-0.0079,0.0154,0.0378,0.0355,0.0404,0.0397,0.039,0.0384,0.0373,0.0475,0.0475,0.0475,0.0475,0.0475,0,-0.1003,-0.1077,-0.1153,-0.1238,-0.1304,-0.1314,-0.136,-0.1352,-0.1346,-0.1221,-0.1101,-0.0758,-0.0411,-0.0103,0.0268,0.0483,0.0459,0.0506,0.0437,0.0428,0.0419,0.0411,0.0512,0.0512,0.0513,0.0513,0,0,-0.1026,-0.1113,-0.1167,-0.132,-0.1396,-0.1468,-0.1505,-0.1472,-0.1386,-0.1269,-0.1112,-0.0837,-0.0437,-0.0163,0.0131,0.0322,0.03,0.0333,0.0282,0.0155,0.0143,0.0346,0.0321,0,0,0,0,0]}],[{"header":{"parameterUnit":"m.s-1","parameterCategory":2,"la1":30.2991,"la2":30.254,"lo1":-89.0895,"lo2":-89.0444,"dy":0.0017,"dx":0.0017,"nx":28,"ny":28,"refTime":"2024-10-15T03:00:00:Z","depth":"4","parameterNumber":2,"parameterNumberName":"U-component_of_CURRENTS"},"data":[0,0,0,0,0,0,0,0,0,0,0,0,0,0,0,0,0,0,0,0,0,0,0,0,0,0,0,0,0,0,0,0,0,0,0,0,0,0,0,0,0,0,0,0,0,0,0,0,0,0,0,0,0,0,0,0,0,0,-0.1417,-0.1418,0,-0.1453,-0.1453,-0.1454,-0.1486,-0.1487,-0.1487,-0.1488,-0.1525,-0.1526,-0.1526,0,0,0,0,0,0,0,0,0,0,0,0,0,-0.1352,-0.1353,-0.1417,-0.1418,-0.1419,-0.1453,-0.1453,-0.1454,-0.1486,-0.1487,-0.1487,-0.1488,-0.1525,-0.1526,-0.1526,0,0,0,0,0,0,0,0,0,0,0,0,0,-0.1381,-0.1353,-0.1417,-0.144,-0.1443,-0.1453,-0.1453,-0.1454,-0.1486,-0.1487,-0.1487,-0.1488,-0.1525,-0.1525,-0.1526,-0.1514,0,0,-0.1528,-0.1529,0,0,0,0,0,0,0,0,-0.138,-0.1384,-0.1436,-0.1439,-0.1441,-0.1467,-0.1444,-0.1475,-0.1486,-0.1468,-0.1488,-0.1489,-0.1506,-0.1509,-0.1511,-0.1516,-0.1518,-0.1528,-0.1529,-0.1529,-0.1529,0,0,0,0,0,0,0,-0.1378,-0.1382,-0.143,-0.1437,-0.144,-0.144,-0.1445,-0.145,-0.1481,-0.1469,-0.1472,-0.1478,-0.1508,-0.151,-0.1512,-0.1518,-0.1528,-0.1529,-0.153,-0.153,-0.1584,-0.1585,0,0,0,0,0,0,-0.1377,-0.138,-0.1429,-0.1431,-0.1414,-0.1441,-0.1446,-0.1457,-0.1481,-0.1486,-0.1478,-0.148,-0.1509,-0.1511,-0.1514,-0.1568,-0.1529,-0.153,-0.153,-0.1583,-0.1584,-0.1585,0,0,0,0,0,0,-0.1376,-0.1381,-0.1427,-0.1407,-0.1414,-0.1441,-0.1453,-0.1457,-0.1485,-0.1488,-0.1492,-0.1505,-0.1509,-0.1513,-0.1542,-0.1567,-0.153,-0.1531,-0.1582,-0.1583,-0.1585,-0.1633,0,0,0,0,0,0,-0.1374,-0.1381,-0.1398,-0.1408,-0.1415,-0.1451,-0.1452,-0.1457,-0.1487,-0.1491,-0.1511,-0.1514,-0.151,-0.1541,-0.1542,-0.1567,-0.1531,-0.1581,-0.1582,-0.1584,-0.163,-0.1636,-0.1641,0,0,0,0,0,-0.1371,-0.1388,-0.1399,-0.1405,-0.1435,-0.1452,-0.1456,-0.1476,-0.1488,-0.1504,-0.152,-0.1515,-0.1554,-0.1542,-0.1544,-0.157,-0.158,-0.1582,-0.1584,-0.1628,-0.1635,-0.1641,0,0,0,0,0,0,-0.1369,-0.1393,-0.1405,-0.143,-0.1449,-0.1459,-0.1478,-0.149,-0.1515,-0.1525,-0.1526,-0.153,-0.1565,-0.156,-0.1547,-0.1591,-0.1566,-0.1569,-0.1599,-0.1606,-0.1611,-0.1616,-0.1532,0,0,0,0,0,-0.1376,-0.1397,-0.1417,-0.1439,-0.1451,-0.1469,-0.1483,-0.1498,-0.1515,-0.1528,-0.1543,-0.1558,-0.157,-0.1583,-0.1591,-0.1615,-0.1612,-0.1633,-0.1639,-0.1643,-0.1649,-0.1659,-0.1666,-0.1593,-0.1593,-0.1593,0,0,-0.1382,-0.1398,-0.1412,-0.144,-0.1457,-0.1479,-0.148,-0.1509,-0.1535,-0.1527,-0.1573,-0.1578,-0.158,-0.1609,-0.1624,-0.1612,-0.1665,-0.1646,-0.165,-0.1653,-0.1662,-0.1669,-0.1675,-0.1594,-0.1594,-0.1594,0,0,-0.1392,-0.1419,-0.1437,-0.1457,-0.1488,-0.1501,-0.1516,-0.1542,-0.1566,-0.16,-0.1603,-0.1627,-0.1649,-0.1656,-0.166,-0.17,-0.1692,-0.1706,-0.1741,-0.1751,-0.1757,-0.1762,-0.1777,-0.1783,-0.171,-0.1711,-0.1711,0,-0.1399,-0.1424,-0.1445,-0.1467,-0.1489,-0.1515,-0.154,-0.1564,-0.16,-0.1622,-0.1624,-0.1667,-0.1669,-0.1701,-0.1716,-0.1713,-0.1719,-0.1716,-0.1758,-0.1763,-0.1767,-0.1781,-0.1788,-0.1713,-0.1713,-0.1713,-0.1712,0,-0.1413,-0.1446,-0.1459,-0.1497,-0.1524,-0.1551,-0.1586,-0.1622,-0.1653,-0.1673,-0.1721,-0.1726,-0.175,-0.1757,-0.175,-0.1787,-0.1782,-0.1762,-0.1741,-0.1778,-0.179,-0.1796,-0.1717,-0.1716,-0.1715,-0.1715,0,0,-0.1392,-0.1457,-0.1464,-0.1492,-0.1545,-0.1566,-0.1619,-0.1666,-0.1708,-0.1742,-0.1789,-0.181,-0.1818,-0.1823,-0.1821,-0.1833,-0.1871,-0.1818,-0.1817,-0.1833,-0.1904,-0.1809,-0.1806,-0.186,-0.1861,-0.1862,-0.1903,0,-0.1397,-0.1441,-0.1477,-0.1531,-0.1555,-0.1607,-0.1655,-0.1706,-0.175,-0.1803,-0.1821,-0.186,-0.1842,-0.1861,-0.1871,-0.187,-0.1887,-0.1863,-0.1866,-0.1866,-0.1777,-0.1809,-0.1865,-0.1907,-0.1908,-0.1909,-0.191,0,-0.1389,-0.1424,-0.1473,-0.1552,-0.1571,-0.1612,-0.1696,-0.1743,-0.1819,-0.1855,-0.1897,-0.1915,-0.1948,-0.1923,-0.1944,-0.1932,-0.1927,-0.1922,-0.1922,-0.1819,-0.1781,-0.186,-0.192,-0.1919,-0.1918,-0.1917,-0.1917,0,-0.1343,-0.142,-0.1462,-0.1487,-0.1577,-0.1621,-0.1674,-0.1757,-0.1806,-0.189,-0.1933,-0.197,-0.1998,-0.1995,-0.1992,-0.1973,-0.2014,-0.1979,-0.1892,-0.1886,-0.1938,-0.1932,-0.1997,-0.1997,-0.1997,-0.1997,-0.1997,0,-0.1315,-0.1353,-0.1449,-0.1469,-0.1533,-0.1606,-0.1681,-0.1743,-0.1835,-0.189,-0.1954,-0.1993,-0.2019,-0.2044,-0.2023,-0.1977,-0.2037,-0.1905,-0.1889,-0.1959,-0.1955,-0.1943,-0.1936,-0.1998,-0.1998,-0.1998,-0.1997,0,-0.1247,-0.1312,-0.1364,-0.147,-0.1509,-0.1551,-0.1675,-0.1725,-0.1825,-0.1901,-0.1931,-0.2021,-0.2047,-0.2069,-0.2076,-0.2008,-0.1979,-0.1953,-0.205,-0.2038,-0.1839,-0.1834,-0.1844,-0.1841,-0.1838,-0.1836,-0.1834,0,-0.1212,-0.1231,-0.1345,-0.1381,-0.1432,-0.1516,-0.1574,-0.1697,-0.1748,-0.19,-0.192,-0.2004,-0.2045,-0.1983,-0.2011,-0.1976,-0.1949,-0.1928,-0.1856,-0.1839,-0.1823,-0.1822,-0.1821,-0.183,-0.1829,-0.1829,-0.1828,0,-0.1138,-0.1187,-0.123,-0.1304,-0.1372,-0.1444,-0.1535,-0.1567,-0.1708,-0.1819,-0.1865,-0.1883,-0.1922,-0.1913,-0.1914,-0.1882,-0.193,-0.19,-0.1904,-0.1836,-0.1823,-0.1809,-0.1811,-0.1819,-0.182,-0.1821,-0.1822,0,-0.1081,-0.1091,-0.1154,-0.121,-0.1294,-0.1343,-0.141,-0.1481,-0.1551,-0.1721,-0.1732,-0.1823,-0.1911,-0.1867,-0.1862,-0.1831,-0.1785,-0.1711,-0.1724,-0.1734,-0.1676,-0.1642,-0.1573,0,0,0,0,0,-0.1015,-0.1018,-0.1059,-0.1117,-0.1198,-0.1245,-0.1373,-0.1445,-0.1589,-0.1582,-0.1654,-0.1683,-0.1692,-0.1735,-0.1673,-0.1796,-0.1783,-0.1716,-0.1703,-0.1769,-0.178,-0.1719,0,0,0,0,0,0,-0.0972,-0.1,-0.1016,-0.1027,-0.105,-0.1129,-0.1205,-0.1307,-0.1314,-0.146,-0.1469,-0.1576,-0.1598,-0.1694,-0.1633,-0.1645,-0.1603,-0.1774,-0.177,-0.1763,-0.1773,-0.1781,-0.1722,0,0,0,0,0]},{"header":{"parameterUnit":"m.s-1","parameterCategory":2,"la1":30.2991,"la2":30.254,"lo1":-89.0895,"lo2":-89.0444,"dy":0.0017,"dx":0.0017,"nx":28,"ny":28,"refTime":"2024-10-15T03:00:00:Z","depth":"4","parameterNumber":3,"parameterNumberName":"V-component_of_CURRENTS"},"data":[0,0,0,0,0,0,0,0,0,0,0,0,0,0,0,0,0,0,0,0,0,0,0,0,0,0,0,0,0,0,0,0,0,0,0,0,0,0,0,0,0,0,0,0,0,0,0,0,0,0,0,0,0,0,0,0,0,0,-0.0051,-0.005,0,0.0002,0.0002,0.0003,0.0033,0.0033,0.0033,0.0034,0.0099,0.01,0.0102,0,0,0,0,0,0,0,0,0,0,0,0,0,-0.0088,-0.0087,-0.0051,-0.005,-0.005,0.0002,0.0002,0.0003,0.0033,0.0033,0.0033,0.0034,0.0098,0.01,0.0102,0,0,0,0,0,0,0,0,0,0,0,0,0,-0.0057,-0.0087,-0.0051,-0.0029,-0.0026,0.0002,0.0002,0.0003,0.0033,0.0033,0.0033,0.0034,0.0097,0.01,0.0102,0.0115,0,0,0.011,0.0111,0,0,0,0,0,0,0,0,-0.0059,-0.0056,-0.0032,-0.003,-0.0027,0.0011,0.0013,0.0041,0.0033,0.0011,0.0034,0.0034,0.007,0.0075,0.0085,0.0118,0.012,0.011,0.0111,0.0113,0.0113,0,0,0,0,0,0,0,-0.0061,-0.0057,-0.003,-0.0032,-0.0029,-0.0008,-0.0004,0.0019,0.0039,0.0013,0.0015,0.0021,0.0072,0.0082,0.0086,0.0121,0.011,0.0112,0.0114,0.0115,0.0167,0.0167,0,0,0,0,0,0,-0.007,-0.006,-0.0032,-0.0028,-0.0043,-0.0008,-0.0003,-0.0001,0.0039,0.0045,0.002,0.0022,0.0078,0.0083,0.0089,0.0101,0.0113,0.0115,0.0116,0.0167,0.0167,0.0167,0,0,0,0,0,0,-0.0071,-0.0068,-0.0034,-0.0043,-0.0037,-0.0008,-0.0006,-0.0,0.0008,0.0045,0.0051,0.0023,0.0078,0.0085,0.0106,0.0104,0.0116,0.0118,0.0167,0.0167,0.0167,0.0129,0,0,0,0,0,0,-0.0072,-0.0069,-0.0073,-0.0044,-0.0037,-0.0023,-0.0006,0.0001,0.0011,0.0013,0.0049,0.0055,0.0079,0.0102,0.0109,0.0108,0.012,0.0168,0.0167,0.0167,0.013,0.0128,0.0125,0,0,0,0,0,-0.0074,-0.008,-0.0074,-0.0071,-0.0043,-0.0023,-0.0018,0.0004,0.0011,0.0012,0.0037,0.0054,0.0106,0.0104,0.0112,0.0111,0.0168,0.0167,0.0167,0.0132,0.0128,0.0125,0,0,0,0,0,0,-0.0097,-0.0077,-0.007,-0.0069,-0.0051,-0.0018,-0.0016,-0.0,0.002,0.002,0.0054,0.0063,0.008,0.01,0.0098,0.0126,0.0139,0.014,0.011,0.0107,0.0104,0.0098,0.0122,0,0,0,0,0,-0.0106,-0.0108,-0.0081,-0.0082,-0.0075,-0.0047,-0.0037,-0.0023,0.0001,0.001,0.0036,0.0062,0.0085,0.0099,0.0122,0.0138,0.0161,0.0143,0.014,0.0138,0.0137,0.0168,0.0169,0.0167,0.0167,0.0167,0,0,-0.0116,-0.0105,-0.0106,-0.0088,-0.0073,-0.0067,-0.0041,-0.0031,-0.0025,0.0014,0.0027,0.0053,0.0087,0.0105,0.0115,0.0122,0.015,0.0137,0.0135,0.0136,0.0168,0.0168,0.0169,0.0166,0.0167,0.0167,0,0,-0.0137,-0.0127,-0.0136,-0.0123,-0.0104,-0.0086,-0.0086,-0.0056,-0.0042,-0.0025,0.0004,0.0029,0.0063,0.009,0.0107,0.0105,0.0134,0.011,0.0094,0.0124,0.0124,0.0125,0.015,0.0153,0.011,0.011,0.011,0,-0.015,-0.0157,-0.0134,-0.0137,-0.0133,-0.0098,-0.0104,-0.0083,-0.005,-0.0038,-0.0028,0.0029,0.0056,0.0086,0.0085,0.0099,0.0118,0.0102,0.012,0.0121,0.0123,0.0149,0.0153,0.0108,0.0108,0.0108,0.0108,0,-0.0174,-0.0181,-0.0184,-0.0179,-0.0169,-0.0169,-0.0139,-0.0126,-0.0106,-0.0079,-0.0048,-0.0005,0.003,0.0043,0.0064,0.0088,0.0099,0.0111,0.0126,0.012,0.0148,0.0153,0.0105,0.0106,0.0106,0.0107,0,0,-0.0199,-0.0203,-0.0205,-0.0216,-0.0194,-0.0191,-0.0179,-0.0156,-0.0149,-0.0108,-0.0091,-0.0043,-0.0013,0.0008,0.0043,0.0072,0.0098,0.0092,0.0095,0.0114,0.0161,0.0167,0.0173,0.0112,0.0113,0.0113,0.0175,0,-0.0226,-0.0254,-0.024,-0.0263,-0.0275,-0.0242,-0.0236,-0.0209,-0.0177,-0.015,-0.0092,-0.0064,-0.0028,-0.0013,0.0024,0.0083,0.011,0.008,0.0167,0.0169,0.0173,0.0179,0.0116,0.0179,0.018,0.0181,0.0182,0,-0.0249,-0.0269,-0.0302,-0.0315,-0.0316,-0.0321,-0.0307,-0.0294,-0.024,-0.0213,-0.0164,-0.0115,-0.0055,-0.0031,0.0069,0.0048,0.0097,0.0142,0.0146,0.0169,0.0185,0.0188,0.0191,0.019,0.019,0.0189,0.0188,0,-0.0283,-0.0308,-0.0343,-0.0346,-0.0352,-0.0359,-0.0356,-0.0317,-0.031,-0.0251,-0.0235,-0.0151,-0.0115,-0.0033,0.0072,0.0067,0.0181,0.0185,0.0237,0.0238,0.0231,0.023,0.0244,0.0244,0.0244,0.0244,0.0244,0,-0.0312,-0.0339,-0.0368,-0.0386,-0.0426,-0.0407,-0.0427,-0.0404,-0.0372,-0.0364,-0.0274,-0.0243,-0.0115,-0.0028,0.0063,0.0173,0.0176,0.0238,0.0257,0.0213,0.0209,0.0234,0.0232,0.0246,0.0246,0.0245,0.0245,0,-0.0336,-0.0354,-0.0399,-0.043,-0.0445,-0.0471,-0.0489,-0.0497,-0.0456,-0.0441,-0.0425,-0.0313,-0.0199,-0.0065,0.0074,0.0152,0.0261,0.0295,0.0242,0.0257,0.0298,0.0294,0.0353,0.0354,0.0355,0.0355,0.0356,0,-0.0348,-0.0375,-0.044,-0.0479,-0.0497,-0.0537,-0.0563,-0.0544,-0.0547,-0.048,-0.0474,-0.0361,-0.0276,-0.0067,0.0074,0.0253,0.0273,0.0334,0.0314,0.0298,0.0311,0.0305,0.0299,0.0357,0.0357,0.0357,0.0357,0,-0.0371,-0.0397,-0.0438,-0.0526,-0.0575,-0.0625,-0.0657,-0.0666,-0.0632,-0.0598,-0.0511,-0.0382,-0.0252,-0.0078,0.0066,0.0194,0.0302,0.0341,0.034,0.0322,0.0303,0.0313,0.0307,0.0359,0.0359,0.0359,0.0359,0,-0.0384,-0.0425,-0.0491,-0.0563,-0.0636,-0.0694,-0.0705,-0.0701,-0.0693,-0.0611,-0.0582,-0.0417,-0.0317,-0.0109,0.0029,0.0157,0.0179,0.022,0.0226,0.0225,0.0175,0.0132,0.0153,0,0,0,0,0,-0.0393,-0.0449,-0.0525,-0.061,-0.0685,-0.0727,-0.076,-0.0756,-0.0723,-0.0675,-0.0628,-0.05,-0.0274,-0.0163,-0.004,0.0026,0.0193,0.0176,0.024,0.0372,0.0369,0.0333,0,0,0,0,0,0,-0.0405,-0.0476,-0.0526,-0.0636,-0.07,-0.0778,-0.0802,-0.078,-0.0743,-0.0685,-0.0569,-0.0475,-0.0263,-0.0359,-0.0043,0.0001,0.006,0.029,0.0293,0.0373,0.0371,0.0369,0.0331,0,0,0,0,0]}]]